Weather History for Big Bear City, CA

Change the Weather History Date:

Tuesday, July 23, 2013

  Actual Average (KBUO) Record (KBUO)
Temperature  
Mean Temperature 60 °F -  
Max Temperature 71 °F 91 °F 98 °F (2000)
Min Temperature 50 °F 59 °F 55 °F (2001)
Degree Days  
Heating Degree Days 4    
Growing Degree Days 10 (Base 50)    
Moisture  
Dew Point 52 °F    
Average Humidity 77    
Maximum Humidity 100    
Minimum Humidity 52    
Precipitation  
Precipitation 0.01 in - - ()
Sea Level Pressure  
Sea Level Pressure 30.30 in    
Wind  
Wind Speed 1 mph (West)    
Max Wind Speed 12 mph    
Max Gust Speed -    
Visibility 7 miles    
Events Fog    
Averages and records for this station are not official NWS values.
T = Trace of Precipitation, MM = Missing Value Source: NWS Daily Summary

Daily Weather History Graph

Daily Weather History Graph

Search for Another Location

Airport:

Trip Planner

Search our weather history database for the weather conditions in past years. The results will help you decide how hot, cold, wet, or windy it might be!

Date:

Astronomy

Jul. 23, 2013 Rise Set
Actual Time 5:52 AM PDT 7:55 PM PDT
Civil Twilight 5:24 AM PDT 8:23 PM PDT
Nautical Twilight 4:49 AM PDT 8:57 PM PDT
Astronomical Twilight 4:13 AM PDT 9:34 PM PDT
Moon 8:33 PM PDT (7/23) 7:00 AM PDT (7/23)
Length of Visible Light 14h 59m
Length of Day
14h 03m
Full, 98% of the Moon is Illuminated
Jul 23
Full
Jul 29
Last Quarter
Aug 6
New
Aug 14
First Quarter
Aug 20
Full

Hourly Weather History & Observations

Time (PDT) Temp. Dew Point Humidity Pressure Visibility Wind Dir Wind Speed Gust Speed Precip Events Conditions
12:15 AM 53.6 °F 53.6 °F 100% 30.30 in 4.0 mi Calm Calm - N/A   Clear
12:35 AM 53.6 °F 51.8 °F 94% 30.29 in 3.0 mi Calm Calm - 0.01 in   Clear
12:55 AM 51.8 °F 51.8 °F 100% 30.29 in 3.0 mi Calm Calm - 0.01 in   Mostly Cloudy
1:15 AM 51.8 °F 51.8 °F 100% 30.28 in 0.5 mi Calm Calm - N/A Fog Fog
1:35 AM 51.8 °F 51.8 °F 100% 30.28 in 0.8 mi Calm Calm - N/A   Overcast
1:55 AM 51.8 °F 51.8 °F 100% 30.28 in 2.0 mi Calm Calm - N/A   Overcast
2:15 AM 51.8 °F 51.8 °F 100% 30.28 in 2.0 mi Calm Calm - N/A   Overcast
2:35 AM 51.8 °F 51.8 °F 100% 30.28 in 1.0 mi Calm Calm - N/A   Overcast
2:55 AM 51.8 °F 51.8 °F 100% 30.28 in 0.2 mi Calm Calm - N/A Fog Fog
3:15 AM 51.8 °F 51.8 °F 100% 30.28 in 1.0 mi Calm Calm - N/A   Overcast
3:35 AM 51.8 °F 51.8 °F 100% 30.28 in 0.2 mi Calm Calm - N/A Fog Fog
3:55 AM 51.8 °F 51.8 °F 100% 30.29 in 0.2 mi Calm Calm - N/A Fog Fog
4:15 AM 51.8 °F 51.8 °F 100% 30.29 in 0.2 mi Calm Calm - N/A Fog Fog
4:35 AM 51.8 °F 51.8 °F 100% 30.29 in 0.2 mi Calm Calm - N/A Fog Fog
4:55 AM 50.0 °F 50.0 °F 100% 30.29 in 1.5 mi Calm Calm - N/A   Overcast
5:15 AM 50.0 °F 50.0 °F 100% 30.30 in 2.5 mi Calm Calm - N/A   Overcast
5:35 AM 50.0 °F 50.0 °F 100% 30.30 in 0.2 mi Calm Calm - N/A Fog Fog
5:55 AM 50.0 °F 50.0 °F 100% 30.30 in 1.0 mi Calm Calm - N/A   Mostly Cloudy
6:15 AM 50.0 °F 50.0 °F 100% 30.30 in 4.0 mi Calm Calm - N/A   Mostly Cloudy
6:35 AM 50.0 °F 50.0 °F 100% 30.30 in 1.8 mi Calm Calm - N/A   Scattered Clouds
6:55 AM 51.8 °F 51.8 °F 100% 30.30 in 4.0 mi Calm Calm - N/A   Clear
7:15 AM 53.6 °F 51.8 °F 94% 30.30 in 7.0 mi Calm Calm - N/A   Clear
7:35 AM 53.6 °F 53.6 °F 100% 30.30 in 5.0 mi Calm Calm - N/A   Clear
7:55 AM 57.2 °F 55.4 °F 94% 30.30 in 10.0 mi West 3.5 mph - N/A   Clear
8:15 AM 57.2 °F 55.4 °F 94% 30.31 in 10.0 mi West 3.5 mph - N/A   Clear
8:35 AM 60.8 °F 55.4 °F 82% 30.31 in 10.0 mi West 3.5 mph - N/A   Clear
8:55 AM 62.6 °F 53.6 °F 72% 30.31 in 10.0 mi Calm Calm - N/A   Clear
9:15 AM 64.4 °F 51.8 °F 64% 30.31 in 10.0 mi Calm Calm - N/A   Clear
9:35 AM 66.2 °F 51.8 °F 60% 30.31 in 10.0 mi Calm Calm - N/A   Clear
9:55 AM 66.2 °F 51.8 °F 60% 30.31 in 10.0 mi Calm Calm - N/A   Clear
10:15 AM 68.0 °F 50.0 °F 52% 30.31 in 10.0 mi Calm Calm - N/A   Clear
10:35 AM 68.0 °F 50.0 °F 52% 30.32 in 10.0 mi West 4.6 mph - N/A   Scattered Clouds
10:55 AM 69.8 °F 53.6 °F 56% 30.32 in 10.0 mi SW 5.8 mph - N/A   Overcast
11:15 AM 69.8 °F 51.8 °F 53% 30.32 in 10.0 mi Calm Calm - N/A   Mostly Cloudy
11:35 AM 69.8 °F 51.8 °F 53% 30.32 in 10.0 mi West 5.8 mph - N/A   Mostly Cloudy
11:55 AM 69.8 °F 53.6 °F 56% 30.31 in 10.0 mi West 4.6 mph - N/A   Overcast
12:15 PM 68.0 °F 53.6 °F 60% 30.31 in 10.0 mi Calm Calm - N/A   Overcast
12:35 PM 68.0 °F 51.8 °F 56% 30.31 in 10.0 mi North 3.5 mph - N/A   Overcast
1:15 PM 68.0 °F 51.8 °F 56% 30.31 in 10.0 mi NE 5.8 mph - N/A   Overcast
1:35 PM 68.0 °F 51.8 °F 56% 30.31 in 10.0 mi East 6.9 mph - N/A   Overcast
1:55 PM 68.0 °F 53.6 °F 60% 30.31 in 10.0 mi ENE 4.6 mph - N/A   Overcast
2:15 PM 68.0 °F 51.8 °F 56% 30.31 in 10.0 mi Calm Calm - N/A   Overcast
2:35 PM 69.8 °F 53.6 °F 56% 30.31 in 10.0 mi South 4.6 mph - N/A   Mostly Cloudy
2:55 PM 69.8 °F 53.6 °F 56% 30.30 in 10.0 mi Calm Calm - N/A   Overcast
3:15 PM 69.8 °F 51.8 °F 53% 30.30 in 10.0 mi ENE 4.6 mph - N/A   Overcast
3:35 PM 69.8 °F 53.6 °F 56% 30.29 in 10.0 mi SW 3.5 mph - N/A   Overcast
3:55 PM 68.0 °F 53.6 °F 60% 30.29 in 10.0 mi West 5.8 mph - N/A   Overcast
4:15 PM 68.0 °F 53.6 °F 60% 30.29 in 10.0 mi West 8.1 mph - N/A   Overcast
4:35 PM 68.0 °F 55.4 °F 64% 30.28 in 10.0 mi West 5.8 mph - N/A   Mostly Cloudy
4:55 PM 69.8 °F 53.6 °F 56% 30.28 in 10.0 mi West 5.8 mph - N/A   Scattered Clouds
5:15 PM 71.6 °F 53.6 °F 53% 30.27 in 10.0 mi West 6.9 mph - N/A   Scattered Clouds
5:35 PM 69.8 °F 53.6 °F 56% 30.27 in 10.0 mi West 9.2 mph - N/A   Scattered Clouds
5:55 PM 69.8 °F 53.6 °F 56% 30.27 in 10.0 mi WSW 11.5 mph - N/A   Mostly Cloudy
6:15 PM 68.0 °F 53.6 °F 60% 30.27 in 10.0 mi West 10.4 mph - N/A   Scattered Clouds
6:35 PM 68.0 °F 53.6 °F 60% 30.27 in 10.0 mi West 6.9 mph - N/A   Scattered Clouds
6:55 PM 68.0 °F 53.6 °F 60% 30.27 in 10.0 mi West 4.6 mph - N/A   Scattered Clouds
7:15 PM 68.0 °F 51.8 °F 56% 30.27 in 10.0 mi West 5.8 mph - N/A   Scattered Clouds
7:35 PM 66.2 °F 51.8 °F 60% 30.27 in 10.0 mi West 3.5 mph - N/A   Scattered Clouds
7:55 PM 64.4 °F 51.8 °F 64% 30.28 in 10.0 mi Calm Calm - N/A   Clear
8:15 PM 62.6 °F 53.6 °F 72% 30.28 in 10.0 mi Calm Calm - N/A   Clear
8:35 PM 62.6 °F 53.6 °F 72% 30.29 in 10.0 mi Calm Calm - N/A   Clear
8:55 PM 60.8 °F 53.6 °F 77% 30.30 in 10.0 mi Calm Calm - N/A   Clear
9:15 PM 59.0 °F 53.6 °F 82% 30.31 in 10.0 mi Calm Calm - N/A   Scattered Clouds
9:35 PM 59.0 °F 53.6 °F 82% 30.31 in 10.0 mi Calm Calm - N/A   Clear
9:55 PM 57.2 °F 53.6 °F 88% 30.31 in 10.0 mi Calm Calm - N/A   Clear
10:15 PM 57.2 °F 51.8 °F 82% 30.31 in 10.0 mi Calm Calm - N/A   Clear
10:35 PM 55.4 °F 51.8 °F 88% 30.31 in 10.0 mi Calm Calm - N/A   Clear
10:55 PM 55.4 °F 51.8 °F 88% 30.31 in 10.0 mi Calm Calm - N/A   Clear
11:15 PM 55.4 °F 51.8 °F 88% 30.31 in 10.0 mi Calm Calm - N/A   Clear
11:35 PM 53.6 °F 51.8 °F 94% 30.31 in 10.0 mi Calm Calm - N/A   Clear
11:55 PM 53.6 °F 51.8 °F 94% 30.31 in 10.0 mi Calm Calm - N/A   Clear